Theta_e
318 321 322 328 331 333 334 335 336 337 338 339 339 340 340 341 341 341 340 331 335 339 341 341 341 341 343 344 343 343 342 342 341 340 339 338 337 335 334 333 333 333 333
318 320 321 322 324 328 331 333 334 334 335 336 334 335 336 338 340 340 340 340 332 335 338 341 342 341 341 341 344 343 343 342 341 341 340 337 337 338 336 335 335 334 333
323 323 324 325 328 330 330 332 333 331 332 333 332 333 334 334 335 336 337 338 336 330 334 338 340 341 341 342 343 343 344 343 342 342 341 340 338 339 339 338 337 336 335
319 319 320 322 326 327 328 328 329 330 328 329 329 330 330 331 332 333 336 337 337 336 333 333 337 340 340 342 342 343 343 343 342 341 342 341 339 339 340 339 338 338 337
315 317 319 321 323 325 325 325 325 325 326 326 326 327 329 329 330 331 334 333 334 334 335 332 330 331 334 337 339 340 341 344 342 341 341 341 341 340 340 340 340 339 339
313 314 317 318 320 319 317 318 322 324 323 321 323 323 325 327 329 329 330 330 330 332 332 332 331 330 328 331 334 336 338 340 342 342 342 341 341 341 341 341 340 340 340
310 311 312 313 315 313 313 312 315 318 318 319 320 318 320 321 321 322 325 326 327 328 329 329 330 330 329 329 330 332 334 336 338 341 341 341 341 342 342 341 342 341 341
307 307 308 310 310 311 310 310 309 312 316 316 315 315 310 314 316 316 318 319 319 320 318 319 320 323 327 328 327 328 330 333 335 336 338 340 340 340 341 343 343 342 341
302 304 305 305 306 306 305 307 307 306 308 312 310 311 308 306 309 314 314 313 310 310 310 311 313 313 316 323 324 323 315 318 325 330 334 336 337 340 341 343 343 342 342
299 300 300 301 303 304 302 302 302 304 306 303 308 307 308 307 306 306 313 311 310 308 308 309 308 314 311 310 311 309 309 314 319 325 329 331 334 335 340 341 342 342 342
297 297 297 297 298 299 301 301 300 299 301 300 300 301 304 305 306 301 299 302 303 306 305 304 307 309 306 304 304 305 305 313 316 320 325 327 330 333 335 336 341 340 339
295 295 295 295 296 296 296 299 298 299 299 299 298 298 298 298 297 296 294 295 296 296 297 304 309 304 302 298 300 302 304 309 311 316 321 323 321 322 329 334 335 339 339
291 291 292 292 292 294 293 294 292 293 294 297 295 296 296 298 298 296 294 293 291 292 298 299 301 301 298 296 298 299 302 305 306 313 316 317 315 316 318 323 332 335 338
290 290 290 291 290 291 291 292 291 291 290 292 289 290 293 295 295 296 293 290 287 290 294 295 299 298 297 295 297 298 300 299 305 309 309 309 310 311 312 314 323 330 331
290 289 289 289 289 289 290 290 290 290 290 290 290 289 289 290 292 295 294 292 289 286 287 292 292 296 296 295 296 297 296 299 300 301 302 303 306 308 309 309 312 318 325
287 287 287 288 288 288 288 289 289 289 289 289 289 288 288 288 290 291 291 291 291 290 286 291 291 294 293 293 294 295 296 298 298 298 299 300 305 304 305 306 308 310 314
287 286 286 286 286 286 286 287 287 288 288 288 288 287 286 287 288 288 290 290 290 291 287 289 292 293 291 291 292 293 295 295 296 296 297 298 301 299 301 302 304 306 306
286 286 285 286 286 286 286 285 286 287 287 287 287 286 285 286 286 287 288 288 289 289 288 286 289 290 290 291 291 290 291 292 293 294 295 298 295 296 297 298 300 302 303
285 285 285 285 285 285 285 285 286 287 287 286 286 285 285 285 285 286 287 287 287 288 289 287 286 289 290 290 289 290 290 291 291 292 294 293 294 294 295 296 297 299 301
284 284 284 284 284 284 284 285 286 287 287 287 286 286 285 285 285 286 287 287 287 287 287 286 286 286 287 288 288 286 286 289 289 290 292 292 292 293 293 295 296 296 297
284 284 283 284 283 284 284 285 287 287 286 285 285 285 285 286 288 288 287 286 287 286 286 285 284 284 284 284 284 286 285 286 288 290 289 290 290 291 291 293 294 295 296
283 283 283 283 283 283 285 288 289 286 284 284 284 284 285 286 286 287 287 288 288 286 285 284 284 282 283 284 285 285 284 282 281 289 288 287 290 289 291 293 293 294 298
282 282 282 282 282 282 285 287 288 285 284 284 284 284 284 284 286 285 286 287 287 288 288 286 284 283 283 285 285 284 284 283 283 287 286 284 287 287 291 290 291 292 295
282 282 281 282 282 282 285 287 287 286 285 284 284 284 283 283 284 285 285 285 285 286 286 286 286 286 286 287 287 286 285 284 285 286 286 281 286 286 287 289 290 293 291
281 281 282 281 281 281 284 286 286 285 284 284 284 284 283 284 286 287 286 284 284 285 287 288 288 289 289 289 288 286 282 280 279 281 285 283 285 284 286 286 289 289 289
282 282 282 282 282 282 283 285 286 285 283 283 284 284 286 286 287 287 285 284 284 284 285 285 285 286 286 285 286 285 283 280 279 278 284 282 283 283 280 285 286 287 287
Wind_Speed
6 6 6 6 6 6 5 6 6 7 9 10 10 12 12 12 12 7 7 11 15 16 16 17 17 18 17 17 18 18 16 16 17 16 15 16 15 16 15 15 14 14 14
6 6 6 7 7 7 7 5 6 6 6 7 8 8 11 10 11 11 8 8 14 15 16 16 17 18 19 19 18 19 18 18 19 18 18 18 18 17 18 17 16 16 16
7 7 6 6 6 7 10 8 9 5 6 6 8 7 7 8 9 11 10 8 7 12 14 16 17 17 18 20 21 20 20 19 19 20 20 20 19 19 19 19 17 17 17
10 8 6 7 8 7 7 7 7 8 5 4 5 6 7 7 10 9 8 7 6 6 8 15 15 19 16 19 18 21 21 21 20 21 22 22 21 21 21 21 20 19 19
11 7 5 6 8 5 4 5 6 5 5 4 5 5 6 6 7 5 7 6 7 6 5 7 9 12 13 19 19 23 23 23 22 21 22 24 23 23 23 23 22 21 20
9 8 7 8 7 6 5 6 6 5 3 4 3 3 5 5 5 5 6 6 6 7 8 8 8 8 10 15 19 21 23 23 22 25 25 25 24 26 25 25 24 24 23
9 8 5 7 8 7 8 9 6 3 4 7 2 3 3 4 3 4 3 4 6 5 6 6 6 6 7 12 16 19 20 22 24 24 27 26 26 27 26 26 27 26 25
9 8 8 7 8 6 9 10 10 5 2 6 3 1 1 1 1 7 2 4 5 7 9 10 11 11 10 10 11 15 20 23 24 25 25 26 27 27 29 30 29 28 27
9 9 9 8 8 7 6 8 9 10 5 4 8 4 2 2 2 2 3 4 6 7 9 11 12 12 13 11 13 12 22 23 22 24 28 27 27 29 30 30 30 30 28
10 10 9 9 9 7 7 7 8 7 6 6 4 6 5 4 3 4 2 3 8 7 5 5 9 9 10 9 12 17 24 22 24 21 23 26 30 30 30 31 31 30 29
9 8 9 9 8 7 8 9 8 9 7 6 6 5 5 5 3 2 3 5 7 6 8 8 7 6 11 11 9 14 23 20 23 24 24 23 27 32 33 31 31 32 31
5 8 8 8 8 7 8 6 7 8 6 5 4 5 4 4 6 4 4 7 9 5 9 4 4 7 8 10 12 20 23 20 22 24 24 23 26 31 32 33 31 30 31
4 7 7 7 6 6 6 6 6 7 6 5 6 4 3 3 3 3 5 6 5 5 4 5 5 6 9 11 12 21 21 22 24 25 24 26 27 29 28 30 30 30 29
2 3 4 5 6 6 6 6 4 4 5 4 5 4 2 3 3 3 3 4 5 3 6 6 5 7 10 11 14 22 13 23 22 22 25 26 26 24 27 34 28 26 28
1 4 4 4 5 6 6 6 5 7 7 7 7 6 4 4 4 3 3 2 3 5 5 3 5 9 10 10 13 14 14 18 22 23 23 24 26 23 25 28 32 28 25
1 2 3 4 4 4 4 4 3 3 4 3 3 5 5 4 4 4 4 3 3 5 5 5 8 10 11 10 12 14 14 17 18 22 23 24 22 24 25 26 29 31 30
2 3 3 3 3 4 4 3 3 3 4 5 5 6 7 7 5 5 5 5 4 4 7 9 10 10 11 12 12 12 12 12 11 22 25 23 22 26 26 26 27 28 34
2 2 2 3 3 4 4 3 4 4 4 4 4 4 6 5 6 5 4 6 5 6 5 11 10 9 10 10 11 13 10 9 11 17 25 19 24 25 25 24 25 26 26
3 3 2 3 4 4 5 5 4 5 5 5 5 4 6 6 7 6 6 6 6 6 6 7 9 8 8 9 10 10 10 11 9 18 17 17 24 23 24 24 21 23 25
4 3 3 3 4 4 5 5 5 5 5 5 5 5 5 5 6 7 7 8 7 7 7 7 8 9 8 9 9 10 10 9 11 11 9 17 23 24 21 23 23 20 22
4 3 4 4 4 4 4 5 6 4 4 5 5 5 5 8 12 10 7 9 9 8 7 8 8 9 9 9 10 9 10 11 11 7 9 10 11 11 11 15 16 24 25
4 4 4 4 5 4 8 9 7 3 3 4 5 5 6 10 9 11 14 15 13 10 11 8 9 10 12 10 10 10 10 10 9 6 12 11 10 11 10 9 23 28 23
4 5 4 4 6 6 9 8 9 2 3 4 5 6 7 6 8 8 12 15 14 15 14 12 12 11 12 11 11 12 11 11 11 11 11 11 9 10 10 12 23 23 22
6 5 5 5 5 6 9 9 9 4 4 6 6 7 7 9 8 11 12 11 11 11 9 8 11 11 11 11 11 11 13 13 10 9 9 11 10 9 10 11 21 15 21
5 6 5 5 6 6 10 9 8 4 6 7 7 7 8 9 12 17 11 11 12 12 12 17 18 19 18 19 16 9 9 9 10 10 9 8 8 10 9 9 8 16 23
6 5 6 6 7 7 9 10 8 4 7 7 8 8 11 12 16 17 11 11 12 11 12 12 11 11 12 12 15 9 7 8 9 8 4 6 9 8 7 6 8 9 10
Wind_Direction
323 322 317 311 309 310 299 289 285 284 281 275 269 263 248 235 235 237 241 210 226 240 248 252 253 252 256 248 244 243 239 234 227 230 230 228 230 232 232 234 236 234 230
328 323 318 313 309 306 298 280 272 276 279 277 272 260 254 250 244 233 239 240 227 231 243 246 251 253 252 256 248 242 242 239 236 229 227 238 233 230 233 234 235 236 238
352 340 325 316 316 313 308 305 290 263 259 258 260 259 252 246 241 238 240 244 240 233 238 249 247 246 257 258 257 253 241 237 234 235 230 229 231 229 227 230 236 235 235
7 354 350 344 332 324 320 311 301 287 262 258 257 264 264 258 251 241 232 235 230 241 237 249 246 258 254 265 267 266 258 249 237 236 235 233 229 229 229 227 228 227 228
8 356 356 346 339 334 331 327 311 294 298 296 290 278 273 271 269 267 261 262 259 256 261 261 258 269 276 273 278 272 272 265 249 237 238 239 234 230 231 231 230 228 227
9 7 3 8 6 21 7 358 332 320 329 324 298 285 282 279 274 266 287 290 276 278 279 285 290 286 270 277 279 279 275 274 261 254 239 233 235 237 230 231 232 230 228
17 18 16 20 16 36 25 9 335 358 12 346 8 1 20 25 5 277 284 292 286 318 318 314 309 304 298 274 272 277 282 282 279 268 257 246 239 235 231 234 232 229 227
26 28 22 32 34 24 27 21 12 333 3 9 360 260 5 6 160 220 59 356 23 24 9 4 344 334 319 308 304 296 288 287 285 282 278 266 257 247 242 234 232 230 228
23 25 24 31 33 31 23 25 16 9 341 6 27 344 308 226 334 87 104 59 21 31 358 356 351 343 340 337 339 0 6 354 339 316 299 283 269 257 248 240 235 234 231
29 29 29 29 31 33 26 18 22 14 3 10 329 5 351 8 329 317 81 40 9 10 12 335 328 359 27 14 3 12 359 348 343 329 317 300 291 276 260 248 243 236 232
29 29 34 36 34 35 30 35 30 31 26 22 15 342 354 332 17 341 315 333 338 358 341 328 323 31 24 14 353 352 345 345 342 339 333 323 314 296 280 267 253 243 238
21 21 24 29 32 30 25 31 34 35 34 44 27 22 12 346 345 349 326 333 319 308 319 315 47 34 18 360 351 346 341 340 339 334 338 338 339 340 314 282 268 254 244
17 14 16 21 22 24 31 36 40 43 31 33 22 6 356 348 335 311 288 305 305 316 300 313 57 30 9 352 346 341 338 340 332 332 341 340 344 337 336 317 284 266 253
18 351 10 20 17 17 20 25 34 41 44 52 39 26 343 355 350 351 336 329 311 296 311 335 327 10 358 344 337 335 333 330 331 337 337 337 333 347 350 349 311 280 265
357 16 12 14 13 14 13 15 19 14 10 9 10 7 356 348 344 343 334 321 308 314 308 239 321 340 342 338 335 332 329 329 330 332 328 327 326 346 348 353 342 326 277
356 12 14 11 13 11 3 4 5 7 1 5 360 349 349 338 333 336 334 319 290 275 280 303 306 319 331 331 331 331 328 327 331 335 332 326 335 342 345 344 341 344 339
339 12 4 355 356 354 351 320 325 321 331 336 346 347 343 343 341 338 339 335 325 314 294 297 301 318 320 326 329 333 325 330 329 329 328 323 345 340 338 337 330 339 342
306 328 334 331 334 337 340 328 322 317 305 312 325 330 335 341 336 332 330 323 312 313 298 301 302 306 309 321 322 322 326 325 324 322 327 339 339 337 333 327 328 330 332
250 247 268 299 317 324 321 310 302 309 306 304 309 312 319 330 329 325 323 317 314 305 305 302 307 306 305 319 319 316 321 320 321 323 318 334 334 329 330 325 326 332 334
237 244 258 277 291 302 303 302 303 296 292 292 283 278 289 302 307 305 309 316 314 311 311 310 310 309 311 320 312 319 321 322 321 323 321 331 326 326 325 328 330 330 328
235 253 264 275 289 292 280 281 270 267 283 292 294 291 288 298 305 307 311 314 306 304 309 311 309 312 317 321 321 322 314 321 321 320 321 325 322 318 320 326 326 329 324
220 234 247 264 277 278 283 291 300 263 269 279 294 298 293 293 296 306 307 303 298 308 305 310 309 309 313 314 312 316 316 321 322 322 325 317 321 315 317 324 325 332 315
219 229 248 249 264 271 281 285 295 234 270 281 288 292 293 291 295 294 294 294 295 292 292 299 298 296 301 305 306 307 313 312 306 311 309 308 314 307 317 316 315 318 349
217 228 233 236 252 268 280 287 290 277 273 279 280 282 282 289 283 297 294 289 289 289 284 286 281 285 283 285 299 310 308 303 302 302 309 296 307 307 315 306 309 322 341
214 217 224 226 240 264 275 278 288 280 279 284 283 282 279 285 285 292 295 299 293 291 287 289 289 291 296 301 305 302 300 310 304 304 304 293 301 311 305 302 313 326 327
217 216 232 225 244 256 273 278 278 266 277 284 282 275 279 290 300 302 302 299 290 300 301 293 290 289 289 292 294 290 293 294 301 300 328 297 304 316 309 298 317 308 314